Theta_e
286 282 278 279 281 281 280 279 278 281 285 284 282 282 283 285 286 285 285 285 286 287 290 291 293 295 295 296 295 296 296 298 299 299 299 300 301 301 303 306 306 307 309 310
283 279 283 286 284 282 281 280 279 282 285 284 281 282 283 285 285 285 285 284 285 286 288 289 292 293 294 294 294 296 296 298 299 300 302 306 305 302 304 307 307 309 308 311
281 283 287 285 283 283 281 280 279 279 282 283 281 279 281 284 286 286 285 285 285 285 286 287 290 292 293 292 293 295 297 298 299 300 301 303 307 305 305 306 307 307 311 316
284 286 285 284 283 282 281 283 283 282 278 274 280 274 278 281 283 284 283 283 284 284 286 287 290 291 291 292 294 295 296 297 298 299 299 299 298 297 300 301 302 303 303 305
282 284 283 282 283 284 281 284 283 282 279 276 278 273 276 281 280 282 283 283 283 284 285 286 289 290 291 292 292 295 296 296 297 297 297 297 297 298 299 300 300 300 300 300
285 287 286 284 285 285 286 283 282 280 278 272 276 274 275 276 280 282 282 283 283 283 284 287 289 290 290 291 292 293 294 294 295 295 295 295 295 295 295 296 297 298 298 298
283 284 286 286 283 286 283 279 273 271 271 272 277 275 279 281 282 283 281 283 283 283 283 284 285 287 288 289 290 291 292 292 293 294 293 294 294 295 294 294 294 294 294 294
279 278 284 287 283 282 282 279 275 268 269 272 278 275 281 282 284 283 283 283 283 282 283 283 284 285 285 286 287 288 289 290 291 292 292 292 293 293 293 293 293 293 294 294
279 278 285 287 287 285 282 280 281 274 265 271 274 278 281 282 281 281 281 282 282 282 282 283 284 284 285 285 286 287 287 289 290 290 291 291 291 291 291 291 292 291 292 293
283 278 282 285 287 287 284 284 277 275 267 266 272 275 278 279 280 281 280 281 281 282 282 283 283 284 285 285 286 287 287 287 288 289 289 290 290 290 290 290 289 290 290 291
284 282 280 284 282 282 282 280 281 279 275 271 269 275 281 282 283 281 281 282 282 282 281 282 283 283 284 285 285 285 285 286 286 287 288 288 288 288 288 288 288 288 289 289
285 281 277 279 282 283 283 281 281 274 273 274 275 275 283 282 284 284 282 282 282 282 282 282 282 283 283 283 283 283 283 283 284 285 286 286 287 287 286 286 287 287 287 288
285 279 273 275 278 281 280 282 282 279 279 275 273 276 283 282 282 283 282 282 283 282 282 282 282 282 282 282 281 281 281 281 282 283 284 284 285 285 285 285 285 286 286 286
288 280 279 276 277 278 278 280 281 280 274 276 277 278 281 281 281 281 282 282 282 282 282 281 281 282 282 281 280 279 279 280 280 281 282 282 282 283 284 284 284 284 284 284
284 277 279 279 279 280 280 279 280 279 281 277 278 280 282 283 283 283 284 282 282 281 281 281 281 282 282 280 279 279 279 279 280 280 280 280 282 283 283 283 283 283 282 283
282 276 276 273 277 279 277 279 281 281 282 281 280 279 285 287 285 284 283 282 282 282 282 282 282 283 282 281 279 279 278 279 279 279 279 281 281 282 282 282 282 281 281 281
278 274 273 269 272 273 270 275 279 280 281 282 278 284 284 282 284 284 284 283 283 283 282 282 282 283 283 281 279 278 278 279 279 279 279 279 280 281 281 281 281 280 280 281
274 272 270 267 268 267 280 278 279 281 283 284 283 283 284 285 287 287 288 285 284 283 283 283 283 283 282 280 278 278 278 278 279 278 278 279 279 279 280 281 280 280 281 280
279 276 266 268 262 274 280 277 277 277 278 283 284 286 284 283 284 283 288 288 286 285 284 284 284 283 281 278 278 278 278 278 278 277 277 278 278 278 279 279 279 280 280 280
278 277 274 259 264 266 278 277 279 280 275 281 284 285 281 283 280 284 287 288 286 285 285 283 284 282 279 278 278 278 277 277 276 277 277 277 278 277 277 277 278 280 281 280
269 268 268 262 264 270 278 279 279 273 279 279 280 282 283 284 287 286 288 287 286 285 284 284 283 281 280 278 278 278 277 276 277 276 276 275 275 276 277 277 278 279 279 280
272 270 264 262 262 269 279 278 277 281 280 281 280 283 284 285 284 285 286 286 284 283 284 283 282 281 279 278 278 277 276 276 275 275 274 273 273 275 275 274 277 277 278 278
274 276 273 274 276 280 281 280 281 281 281 281 281 283 285 284 283 284 285 284 284 284 284 283 282 279 277 277 277 276 275 275 273 271 269 270 271 272 273 274 275 275 278 276
276 278 274 276 279 279 280 282 280 281 283 284 283 283 284 283 283 283 283 283 283 284 282 282 279 278 276 275 276 275 274 273 271 270 269 269 269 269 270 272 274 276 277 277
277 279 275 275 279 279 281 282 283 282 282 283 283 284 284 283 283 283 283 283 284 284 283 281 280 278 276 274 273 273 272 271 271 270 268 268 268 266 268 270 271 274 277 279
276 276 278 278 282 283 285 284 285 282 282 283 283 282 283 284 283 283 283 284 284 283 282 280 279 278 275 274 272 271 271 272 271 269 268 267 267 266 267 268 269 277 279 279
Wind_Speed
4 6 4 6 3 3 8 6 4 1 2 4 6 5 8 5 3 4 6 8 9 10 11 11 12 13 17 18 20 20 19 20 14 11 10 7 6 6 6 6 10 11 10 12
6 2 3 6 4 6 5 5 2 1 1 1 1 7 5 6 2 2 4 6 8 11 14 13 16 16 19 18 20 20 21 20 15 13 12 7 5 4 6 7 9 10 11 12
5 4 4 4 3 5 3 5 5 2 1 2 5 5 3 3 4 3 4 3 5 8 11 12 14 16 17 18 18 18 18 17 17 21 13 12 6 4 4 6 3 10 12 6
5 2 4 4 3 2 4 2 5 5 4 3 3 6 4 4 5 3 3 5 5 7 8 8 14 16 16 16 15 17 18 17 19 21 16 19 12 10 8 8 10 12 16 15
4 5 4 3 3 0 4 3 4 3 4 4 1 3 4 4 6 6 2 2 4 6 7 9 11 13 14 14 15 16 18 19 20 19 18 14 15 10 10 10 14 14 14 17
3 1 2 4 3 1 9 6 6 4 3 2 1 5 6 6 8 6 3 1 3 5 7 7 9 10 11 13 14 14 16 17 18 17 19 19 19 18 15 16 13 12 11 12
2 1 1 4 7 6 2 5 2 6 3 5 3 2 8 5 5 7 8 5 2 3 5 6 9 11 11 13 14 13 15 16 17 17 18 17 17 18 17 15 12 15 12 13
6 3 7 3 2 6 5 2 6 8 4 2 3 7 4 3 6 7 6 6 4 2 3 5 5 6 7 10 12 13 15 15 16 15 15 14 16 10 11 14 12 11 10 11
5 0 2 2 1 1 5 5 3 8 2 3 5 5 1 4 5 5 7 5 5 2 1 3 4 4 5 7 9 11 12 12 13 13 11 12 12 13 12 13 12 9 11 11
3 4 1 1 1 2 2 3 3 2 2 4 5 6 6 12 13 10 9 8 7 5 3 1 2 3 4 5 6 9 10 11 11 12 12 10 12 13 12 12 13 13 13 14
6 3 1 2 8 8 4 3 1 2 4 5 1 8 3 15 18 18 13 11 9 8 7 4 1 2 3 4 6 7 10 11 12 12 11 11 12 13 12 12 12 12 12 13
6 5 5 5 1 2 2 6 6 5 6 3 2 8 2 5 15 14 13 12 9 6 7 5 3 1 3 5 7 8 8 9 8 9 9 10 9 10 12 12 12 11 12 13
8 2 4 3 2 2 6 6 4 4 3 8 7 6 3 4 8 10 15 12 10 8 6 5 4 3 3 4 5 6 7 7 7 7 7 9 11 11 11 11 11 12 12 13
3 3 6 8 5 6 6 6 8 5 4 5 9 3 5 6 11 10 12 14 12 11 9 6 5 5 4 4 3 4 5 5 6 7 8 9 10 10 10 11 12 12 12 12
3 5 4 3 2 4 5 5 14 17 17 10 6 14 11 16 18 22 16 13 13 12 10 9 7 6 5 4 3 3 3 4 5 6 7 9 8 8 9 10 10 10 12 11
2 3 2 3 3 3 5 10 11 18 19 17 13 13 6 12 9 11 15 16 17 15 14 11 8 7 7 5 4 3 3 4 4 5 7 7 7 8 9 10 11 12 12 11
7 6 4 6 3 3 8 19 22 10 11 15 17 22 8 8 20 22 21 22 21 18 15 14 12 10 8 6 5 4 3 2 4 6 6 6 7 8 9 10 12 12 11 10
7 6 2 3 3 4 6 4 5 19 19 19 10 6 17 14 20 17 21 24 21 19 17 14 10 8 7 6 5 4 4 3 4 5 5 5 6 7 8 10 11 11 10 11
2 5 3 6 4 9 10 7 9 10 11 23 24 20 7 5 7 7 17 22 23 21 17 15 12 9 7 8 7 6 5 5 5 5 5 5 5 8 8 11 10 10 9 9
3 5 4 3 5 10 7 3 5 6 10 9 20 21 11 11 8 12 20 19 16 16 16 15 13 9 9 8 8 7 6 5 6 5 6 5 5 8 8 8 7 6 6 9
3 3 7 3 4 12 11 5 5 7 9 2 5 8 15 14 12 5 20 18 17 19 18 16 16 14 12 10 9 8 6 6 5 5 5 5 6 7 6 5 4 6 6 5
10 10 5 4 2 14 9 6 10 8 2 1 1 7 16 10 6 9 16 18 21 20 18 17 15 12 9 9 9 8 7 6 5 5 5 6 6 5 5 5 5 7 7 7
7 10 11 13 13 2 16 4 5 3 4 4 3 5 9 9 6 11 15 18 19 21 17 15 15 12 10 7 7 9 7 7 6 5 5 5 5 5 4 5 5 5 8 6
6 5 3 3 8 15 10 11 5 8 6 5 4 6 9 10 9 9 14 16 17 18 18 15 14 13 12 8 6 6 9 8 7 6 5 5 5 4 4 4 4 6 5 6
6 14 8 7 8 7 12 14 12 13 6 6 4 7 11 10 11 14 13 16 16 18 16 15 15 13 12 10 7 7 9 8 7 6 4 5 5 4 3 3 3 3 2 5
9 10 10 10 11 9 7 14 18 13 13 12 9 5 6 10 14 13 14 15 16 17 15 15 13 13 11 11 9 8 8 8 8 6 4 3 4 3 3 3 3 9 8 10
Wind_Direction
10 85 176 186 149 113 124 120 134 165 194 178 219 235 204 180 94 32 7 5 357 343 320 338 343 349 354 353 350 350 343 339 336 326 314 296 292 287 283 263 267 264 266 263
34 141 149 107 90 100 91 111 110 13 10 227 308 264 193 175 150 85 28 5 348 336 345 352 351 359 5 354 353 353 350 345 350 347 334 320 323 291 282 285 279 283 272 267
141 157 149 111 119 104 48 143 173 149 97 43 343 286 151 189 124 118 45 13 342 326 336 340 351 2 1 359 357 350 351 351 10 5 355 351 348 308 305 330 359 27 31 9
86 167 139 117 136 121 164 165 122 121 106 220 36 276 225 193 192 179 37 10 349 342 349 343 3 2 358 357 356 359 3 2 20 14 10 16 17 2 0 17 26 31 31 30
184 148 138 126 111 8 161 128 103 87 91 52 90 78 268 132 222 206 128 11 3 342 343 351 0 360 352 359 2 5 14 15 23 18 20 20 18 13 24 28 38 33 32 32
87 282 56 126 83 70 144 81 55 58 87 31 129 133 266 190 197 147 154 135 25 345 347 6 4 1 358 5 8 3 4 14 19 21 24 25 25 25 27 23 30 30 34 33
19 2 47 127 84 3 82 108 346 349 14 220 151 71 253 190 175 152 160 157 81 355 358 12 9 6 360 9 9 3 5 14 10 14 21 22 24 26 30 27 25 29 26 26
153 259 178 181 201 176 183 189 165 206 205 230 129 232 263 149 122 119 136 148 126 23 3 27 3 357 352 360 7 360 358 2 8 6 16 19 27 30 28 25 23 25 24 24
150 166 345 33 110 151 185 199 134 104 28 49 214 267 260 130 150 155 162 163 164 185 335 32 356 11 10 4 9 359 353 354 7 5 7 20 21 27 28 25 29 28 26 25
218 103 317 228 58 20 187 153 89 4 171 253 270 272 228 196 195 186 182 187 188 195 216 184 15 8 17 12 1 8 354 2 1 6 3 11 21 23 25 29 26 22 19 23
163 168 140 138 204 180 154 193 182 143 166 176 223 257 207 193 186 183 185 189 186 190 191 189 159 355 28 31 7 27 8 9 6 2 8 16 17 22 28 27 24 22 25 25
208 110 164 204 280 229 195 196 178 143 214 237 155 270 330 211 180 173 178 184 190 187 184 188 168 99 35 35 15 26 15 15 6 358 360 14 30 25 31 29 25 22 30 28
187 215 87 1 357 334 221 195 181 129 104 205 149 255 28 104 147 174 170 176 189 187 193 192 171 153 86 49 30 17 21 7 357 354 15 23 20 24 31 28 26 27 25 30
77 173 181 194 171 136 198 196 182 166 165 167 220 213 218 186 182 179 185 177 182 190 194 192 177 168 129 93 58 29 26 2 357 7 20 29 24 22 20 21 26 28 28 31
177 220 178 235 159 173 196 179 192 206 217 203 196 217 207 194 193 195 182 174 177 189 195 198 187 173 152 128 98 64 47 28 9 22 28 25 19 25 32 30 29 30 33 31
192 221 99 297 327 250 251 236 201 216 230 247 243 256 182 200 161 168 182 181 190 190 194 195 188 172 163 159 135 110 58 39 39 36 37 18 21 27 32 30 29 27 27 31
154 141 115 263 5 333 288 223 210 201 209 208 217 230 167 176 182 189 186 188 192 190 187 186 188 179 171 161 152 148 123 77 67 54 39 23 32 35 32 39 35 32 27 30
147 121 86 198 28 277 239 183 209 225 239 219 251 213 188 192 203 191 192 184 188 186 181 182 173 170 162 148 149 141 138 117 84 70 49 32 30 40 47 46 40 34 31 31
175 134 116 149 193 302 284 188 166 179 262 213 225 229 186 119 94 233 198 191 186 182 176 172 168 157 154 162 154 147 144 134 113 85 62 39 28 44 42 45 32 29 30 30
82 58 124 107 159 230 248 152 169 156 291 217 208 220 161 141 194 216 190 180 170 168 163 153 149 136 158 169 156 146 153 137 102 86 69 50 48 54 47 51 31 23 29 30
115 41 191 154 215 282 240 158 168 103 236 176 199 194 159 192 210 166 161 172 165 159 154 147 151 160 177 163 156 148 150 118 110 99 84 54 47 58 45 46 17 25 31 27
160 148 168 93 144 269 152 72 189 202 188 160 138 170 186 191 140 147 163 162 155 154 151 150 150 159 162 164 154 147 139 125 114 100 83 62 47 50 51 52 38 40 29 21
205 182 177 192 205 202 197 193 208 162 145 185 170 196 189 172 172 158 161 159 160 153 153 154 154 154 151 165 161 148 140 132 121 103 90 77 59 48 43 63 58 52 44 29
241 175 198 125 219 231 225 250 248 207 196 170 195 185 175 176 160 160 156 158 157 156 155 150 148 158 163 160 161 127 137 130 122 118 101 84 74 49 44 60 62 67 39 39
188 148 160 265 275 288 237 229 225 222 192 201 188 196 186 157 167 158 162 163 162 156 153 154 161 163 165 155 148 136 136 136 129 121 111 94 90 70 70 83 83 72 347 53
189 168 177 214 209 192 233 208 210 199 198 195 173 179 178 167 163 163 166 163 159 156 155 159 162 156 152 153 144 140 146 146 142 127 123 124 108 89 82 92 78 56 71 59